DELTA 1 DEB

Satellite information

Favourite Embed

Satellite Type and Status

DEBRISIN ORBIT

Key statistics

Satellite DELTA 1 DEB at a glance.

Uptime

19032

Days in orbit

Revolutions

≈ 12.5

Per day

Orbit

SSO

Sun Synchronous Orbit

Inclination

101.9

Latest

Satellite identification and parameters

Extended collection of information and parameters for DELTA 1 DEB.

Object identification

Identified? True

Debris? True

Object name: DELTA 1 DEB

International designator: 1973-086HC

Object number (NORAD): 19033

Object ID (CCSDS): 19033

Country: UNITED STATES OF AMERICA (US)

Current information (Y/N): Y

RCS size: SMALL

Orbital parameters

Period: 114.877 minutes

Inclination: 101.9452 deg

SMA: 7827.977 km

Apoapsis: 1478.117 km

Periapsis: 1421.567 km

RAAN: 348.4008 deg

Eccentricy: 0.0036121

Argument of periapsis: 128.2673 deg

Mean anomaly: 291.904 deg

Mean motion: 12.53511867 rev/day

Mean motion (dot): 0.00000555 rev/day2

B* drag term: 0.0037651 1/REarth

Two-line elements (TLE)

Creation date: Dec. 12, 2025, 7:16 a.m.

Reference frame: TEME

Reference center: EARTH

Epoch: Dec. 11, 2025, 11:20 p.m. UTC

TLE line 0: 0 DELTA 1 DEB

TLE line 1: 1 19033U 73086HC 25345.97283821 .00000555 00000-0 37651-2 0 9998

TLE line 2: 2 19033 101.9452 348.4008 0036121 128.2673 291.9040 12.53511867860322

Live tracking on map

Real-time ground track for satellite DELTA 1 DEB.

In-orbit conjunctions

A list of the most updated potential collisions computed for object DELTA 1 DEB.

Target Orbit TCA Probability of collision Miss distance Type
COSMOS 1854 LEO 2025-04-06 03:42:34 0.0001258368 983.0 (m) PAYLOAD

Associated space launch

Meteorological satellite using radiometric imaging

DELTA 1 DEB was lifted into orbit during the mission ‘Delta 0300 | NOAA 3’, on board a Delta 0300 space rocket.

The launch took place on Nov. 6, 1973, 5:02 p.m. from Space Launch Complex 2W.

For more information about the launch, click the button.

Launch to space Delta 0300 | NOAA 3
Delta 0300 | NOAA 3

Agency: N/A

Status: Launch Successful

Launch date: Nov. 6, 1973, 5:02 p.m. UTC

Rocket: Delta 0300

Launch pad: Space Launch Complex 2W

Location: Vandenberg SFB, CA, USA

...

Latest news about this satellite

There are no fresh news available about this satellite. Check back as we update our databases every day.


Newsletter sign-up

Weekly statistics, charts and insights to help you stay on top of the space industry.